Helicity
-13 -42 -14 116 115 68 175 -4 26 29 11 -5 4 116 91 79 40 -6 -19 95 49 72 30 57 37 27 39 19 -7 -20 -14 -40 -3 41 39 21 4 18 6 19 22 11 8 8
17 -8 49 14 29 -20 14 -12 17 14 -5 -32 22 19 96 94 70 81 10 -22 86 46 40 59 46 38 33 32 -2 -10 6 -28 8 22 20 46 36 31 21 18 11 3 7 14
6 -4 69 38 2 19 -10 8 13 38 3 -36 -24 34 33 101 65 57 56 43 -33 -2 61 73 30 51 41 36 9 -2 -0 1 8 28 32 29 41 34 29 34 4 3 11 15
6 42 16 7 2 15 3 34 -0 14 -1 54 -22 -17 11 37 45 47 61 26 59 63 -18 -2 77 22 47 57 35 29 16 17 -15 5 34 49 51 24 19 25 40 29 11 16
-0 -5 2 7 17 3 22 12 6 4 1 17 40 -24 -44 32 60 34 33 67 48 171 17 9 -27 101 43 52 63 38 35 19 1 5 33 20 37 26 10 31 54 33 28 12
60 36 24 13 -4 29 36 -5 -18 -16 -10 -10 58 17 124 39 19 40 39 40 66 32 112 5 -9 75 60 72 41 58 51 28 18 10 5 19 30 29 47 37 43 16 14 15
16 5 6 37 9 13 1 23 -23 -4 5 38 48 26 43 35 37 33 34 19 61 49 -8 70 -16 -30 87 21 76 55 79 37 29 22 -5 1 7 16 34 46 4 2 -2 19
28 67 8 36 49 -8 -10 50 23 11 12 29 11 8 48 89 59 44 37 26 3 25 37 8 28 26 -1 44 72 85 109 50 36 34 28 35 -11 6 9 7 41 11 21 14
29 29 35 23 -0 24 8 -1 50 45 18 12 16 48 39 52 39 22 24 28 35 13 8 26 -6 10 54 23 55 99 141 66 40 34 35 35 27 -7 4 46 39 42 4 6
20 38 29 47 1 12 47 60 2 4 -22 12 25 34 54 55 27 29 33 9 35 34 13 -0 30 12 28 63 35 69 131 101 47 35 39 29 30 26 28 48 27 42 47 59
23 -23 68 40 28 7 28 1 10 44 46 43 26 69 89 64 33 41 33 38 52 39 41 27 13 34 12 70 28 58 86 84 42 39 51 27 25 27 34 33 29 37 44 37
-15 -5 27 27 68 62 49 50 43 23 23 9 21 59 70 83 70 100 59 73 57 65 58 43 31 41 37 48 83 71 133 68 81 54 60 54 32 16 30 27 29 46 43 42
17 2 -7 19 70 42 -8 11 14 8 19 39 40 49 64 65 70 86 100 68 61 46 39 48 37 38 47 44 130 173 64 37 105 78 61 57 48 42 11 33 27 40 56 46
54 9 21 26 31 36 1 -20 33 18 23 29 17 61 87 -2 38 43 49 68 75 74 58 53 52 48 47 48 98 143 80 96 131 135 86 111 92 67 30 28 33 30 49 36
15 10 16 26 36 57 27 30 33 31 28 60 49 71 68 55 67 122 111 107 55 44 61 66 54 62 55 57 70 114 113 181 125 158 153 167 141 104 80 76 59 34 37 36
-1 5 31 29 20 38 21 13 18 16 24 24 18 24 23 73 82 85 80 78 65 62 64 54 80 96 94 78 69 84 70 103 171 144 158 157 197 149 104 93 111 57 54 51
-2 3 3 12 18 35 21 26 12 23 20 25 25 22 38 70 47 38 48 41 53 78 68 88 92 54 49 54 84 76 78 96 119 179 209 179 198 180 133 109 113 79 79 52
47 16 1 3 76 44 6 57 59 57 41 36 33 32 51 36 47 37 77 52 58 55 133 108 100 90 66 57 53 77 72 80 92 114 179 206 197 210 113 79 87 109 105 78
24 42 24 21 21 19 14 46 34 29 35 34 35 38 56 41 97 30 60 70 79 161 69 61 84 91 51 46 53 61 90 76 89 121 178 209 175 200 169 110 125 112 115 148
11 47 40 30 20 22 26 94 57 64 -25 87 67 97 72 39 28 142 226 115 96 112 142 149 96 56 92 100 78 113 94 100 134 152 176 226 235 253 168 126 149 189 242 245
43 34 36 19 26 10 87 106 92 26 84 105 102 90 59 40 106 168 175 116 145 186 161 155 137 95 81 83 119 156 153 178 182 134 129 130 106 132 158 158 190 224 221 203
79 42 19 10 16 23 136 102 96 111 62 72 48 48 56 133 187 138 107 110 146 165 180 169 163 143 75 55 74 122 123 90 118 138 167 131 100 184 192 198 220 217 223 223
67 48 18 41 95 101 42 99 93 68 58 73 57 44 24 178 128 91 88 88 109 145 174 183 136 133 68 32 34 -9 27 -4 -10 53 65 176 250 146 180 241 225 183 155 183
30 114 59 42 33 64 48 118 68 68 58 51 37 36 59 61 58 22 52 47 82 109 111 139 132 134 92 44 49 14 -7 12 -8 -32 50 6 132 165 213 138 77 129 105 54
82 108 60 54 95 91 80 88 69 68 38 36 39 41 49 40 17 115 205 167 112 127 117 84 29 86 100 13 -18 -32 -15 14 8 24 28 -14 2 43 49 47 41 8 -10 -47
125 91 28 32 110 38 73 70 112 49 25 37 27 35 22 42 39 35 -36 74 44 30 97 103 114 -81 -64 -35 -15 5 19 19 8 -4 -17 -13 -1 10 -3 14 71 130 73 75
Wind_Speed
9 35 33 43 9 26 45 27 25 26 22 16 16 17 24 27 39 36 27 22 22 21 24 29 33 39 37 35 16 20 52 38 15 51 51 28 28 39 35 31 25 33 35 33
14 44 39 21 37 36 38 34 27 23 23 26 20 17 28 32 39 30 27 25 21 20 22 23 32 34 38 36 27 33 56 45 55 53 51 40 41 37 40 23 25 35 32 25
35 17 30 41 46 41 38 38 36 31 23 21 29 33 13 21 30 28 27 27 24 19 30 21 26 34 38 37 32 22 17 56 55 49 42 43 41 40 37 25 29 26 32 31
51 52 39 46 48 43 42 34 38 36 42 34 31 40 51 13 13 15 18 28 25 18 45 28 22 32 38 37 39 34 17 20 52 54 51 49 39 46 41 39 25 19 29 26
48 55 57 53 51 38 44 37 42 36 56 29 28 43 22 19 12 12 10 21 29 24 31 31 30 30 31 33 36 37 38 39 57 48 54 49 52 37 43 38 18 36 21 25
52 39 50 57 57 46 44 46 44 51 53 56 32 34 30 31 25 25 15 12 16 25 31 35 42 30 25 27 28 27 25 25 39 40 56 55 46 47 37 34 24 14 14 18
38 41 24 48 40 12 36 56 51 41 46 40 29 33 28 24 24 29 25 23 11 8 23 23 52 28 15 26 21 18 15 17 17 33 47 41 51 49 42 46 38 46 17 20
24 17 32 12 58 29 35 61 58 46 45 32 15 44 35 22 27 25 26 28 27 14 2 13 30 29 23 12 16 14 13 14 15 9 7 20 55 49 49 52 39 49 37 20
12 25 18 16 17 47 48 49 54 52 50 50 53 30 27 20 23 23 22 27 25 27 15 6 8 18 19 27 20 16 12 11 10 10 6 11 36 62 46 39 26 35 34 17
29 18 13 11 27 29 60 42 48 29 41 48 38 38 34 19 26 18 21 24 23 25 26 23 14 17 13 18 30 25 15 15 13 11 8 6 15 34 56 44 45 47 33 38
32 21 13 13 6 31 18 35 46 55 54 51 46 34 28 24 29 24 24 29 26 30 29 29 29 25 18 14 23 27 20 20 18 15 17 22 18 19 31 39 44 44 44 40
13 37 19 14 28 40 51 55 55 53 34 36 53 43 30 27 33 29 30 26 31 34 38 37 37 25 23 13 17 19 17 22 31 27 28 20 25 29 23 31 35 29 38 32
17 38 51 35 13 18 35 36 50 60 59 58 57 46 23 27 30 29 35 34 33 36 41 41 38 36 22 12 19 24 19 31 51 32 24 27 21 24 27 22 28 25 23 32
40 53 61 59 31 13 34 16 15 50 57 57 53 36 25 27 29 32 36 40 44 46 46 44 44 38 27 19 15 22 28 24 27 32 32 28 24 24 21 27 25 24 23 22
38 60 56 55 50 37 47 49 35 30 49 63 68 69 67 66 57 50 47 50 52 48 46 46 43 37 32 24 23 26 29 43 30 34 39 34 34 27 27 27 25 29 21 26
23 51 49 51 42 33 39 36 41 45 41 56 55 63 57 47 50 55 56 49 47 45 46 43 42 45 43 39 28 28 26 38 46 43 42 36 39 33 30 29 29 28 29 26
38 41 43 45 43 39 40 38 43 42 50 49 59 56 50 54 59 60 48 39 42 41 42 45 42 45 45 44 44 36 36 34 40 44 54 48 39 41 39 32 34 32 29 32
32 36 40 48 30 47 55 41 46 54 54 53 64 67 58 62 55 54 43 41 34 34 40 43 40 42 44 44 44 40 44 39 37 41 37 44 37 40 43 43 35 38 37 38
55 28 37 49 42 51 52 37 31 35 54 57 64 55 57 59 41 35 25 28 32 28 29 32 34 40 40 41 41 35 33 32 31 35 37 40 40 39 36 40 35 32 31 42
56 36 48 35 50 59 51 26 31 47 75 48 32 39 42 38 38 25 20 25 26 24 24 28 35 37 39 42 38 35 31 32 30 36 38 41 34 42 35 37 35 37 34 31
47 46 45 41 50 53 29 25 30 59 47 39 43 41 41 39 38 21 23 25 22 20 20 23 29 29 30 28 24 26 30 36 37 38 42 40 44 34 42 31 33 27 26 26
39 42 46 45 54 60 20 25 43 44 44 39 44 41 40 29 25 23 20 18 15 13 16 21 22 23 26 23 20 23 22 25 26 30 36 35 35 25 25 26 29 28 25 25
47 37 37 48 35 42 22 34 36 40 41 43 42 40 34 19 23 17 17 13 11 10 13 17 20 22 21 19 24 26 22 22 25 25 29 23 19 13 18 26 20 21 24 22
38 35 42 39 39 27 26 27 32 32 38 34 33 29 19 18 16 15 19 16 13 16 14 19 24 25 24 20 22 25 23 19 20 24 23 24 15 9 14 14 11 14 11 13
40 26 36 38 29 24 23 21 26 29 28 26 27 26 23 20 22 28 27 27 19 12 18 19 21 22 24 25 20 18 19 24 18 18 22 14 21 19 12 10 13 11 14 16
40 49 25 34 14 14 12 15 22 21 20 21 22 26 26 26 30 36 41 22 19 14 17 20 19 17 16 14 12 16 15 16 17 14 16 11 10 8 11 10 15 17 18 19
Wind_Direction
325 278 276 266 32 269 238 310 353 341 355 39 19 11 108 122 152 149 135 117 112 70 81 92 96 101 98 105 99 99 137 124 256 209 210 261 264 234 246 250 283 256 256 274
324 260 283 292 283 285 261 291 325 339 333 307 1 39 116 126 150 138 132 135 122 110 100 92 112 110 115 111 108 117 156 134 166 185 212 230 229 243 239 278 281 255 271 309
236 314 291 275 269 278 287 296 296 299 325 326 310 301 53 108 133 133 136 135 139 127 137 109 118 128 131 127 123 118 117 167 181 218 232 233 231 228 250 282 280 282 271 278
197 235 280 265 261 268 278 299 290 284 272 297 299 299 249 64 83 101 123 145 140 126 179 142 126 137 143 141 144 140 132 133 224 215 220 228 251 239 248 254 293 319 284 306
191 213 243 252 255 267 274 287 281 290 260 308 317 301 337 41 21 48 79 137 155 142 154 157 155 141 141 142 147 150 151 154 183 240 227 235 231 262 244 256 313 268 323 309
215 278 252 220 215 257 262 249 264 249 265 274 294 305 328 328 353 11 16 66 123 145 153 161 171 150 142 142 143 144 145 145 158 157 228 227 247 244 264 269 297 347 14 90
172 180 197 251 225 328 278 221 250 277 277 291 320 307 330 329 340 342 356 356 32 103 153 150 183 155 141 152 144 144 146 150 146 154 243 257 244 248 259 247 227 201 95 103
121 106 148 58 210 289 268 223 251 279 281 321 340 298 314 345 337 345 344 339 339 349 85 163 166 162 164 164 166 159 162 161 161 174 171 278 237 247 246 240 270 250 205 323
81 284 69 326 310 265 254 257 259 277 275 275 276 321 331 329 335 333 340 342 347 340 346 329 265 181 183 177 177 181 190 191 192 184 223 271 265 227 250 266 294 161 255 351
312 323 53 42 301 264 231 281 245 283 281 275 300 301 309 331 330 339 339 340 348 347 338 332 314 290 245 196 183 182 209 198 210 230 219 200 277 270 246 264 264 254 287 277
222 317 41 10 62 263 334 280 274 265 279 286 293 323 339 329 334 337 327 326 335 331 335 332 322 307 288 232 191 187 214 212 229 233 256 270 279 278 274 271 266 267 270 274
309 291 313 335 319 286 274 274 277 282 302 302 293 312 339 330 321 321 317 327 323 322 320 320 315 322 307 242 214 204 212 207 246 252 259 261 273 276 275 275 275 281 275 285
309 284 267 291 344 356 209 206 285 277 284 284 291 309 336 339 327 319 308 315 318 317 314 314 315 310 315 276 255 256 244 188 251 249 246 256 259 270 274 276 279 282 285 284
285 271 262 273 301 353 318 342 344 285 283 287 288 310 335 336 338 322 315 306 305 305 306 307 307 308 309 304 272 258 251 247 245 249 250 249 248 258 265 273 281 285 285 290
286 272 282 286 293 313 303 301 320 318 297 284 284 289 290 297 310 316 312 307 302 300 300 301 304 307 307 303 291 276 266 259 253 254 253 252 253 253 260 268 276 282 288 290
292 283 291 293 301 307 307 313 308 305 309 298 301 294 301 312 316 309 308 305 300 301 298 299 301 298 296 297 297 286 275 261 258 255 255 251 252 255 261 266 271 277 284 289
282 288 290 293 302 300 300 309 306 305 302 303 298 298 303 309 308 307 312 310 303 300 300 298 300 297 293 291 288 290 283 278 265 252 254 255 252 255 258 263 268 272 278 284
283 284 286 290 308 294 297 313 313 302 303 305 294 288 302 300 308 311 317 308 312 308 304 302 303 302 298 293 287 289 286 285 273 260 249 252 253 257 261 267 268 272 277 282
276 275 284 285 293 297 305 313 312 319 305 308 293 303 305 306 320 321 328 324 319 325 321 317 312 306 305 298 289 295 294 293 282 268 259 256 258 257 260 267 271 277 282 281
268 281 278 287 291 290 304 337 329 324 291 326 320 314 320 324 313 336 348 337 329 329 331 326 316 313 307 299 292 294 296 293 290 279 274 269 266 261 263 264 270 276 286 292
262 269 274 283 288 298 323 333 340 306 313 331 323 322 318 314 318 337 338 338 339 334 335 330 330 335 333 330 315 311 303 294 296 285 278 275 268 265 259 272 272 282 292 293
258 261 272 280 285 284 335 334 315 324 325 329 323 322 319 327 334 338 339 340 339 339 331 320 332 343 350 356 358 358 333 331 328 307 294 285 274 281 267 270 274 283 290 294
252 262 272 285 301 301 332 327 333 331 326 325 327 321 324 344 346 360 357 356 340 346 332 323 329 322 331 330 333 346 318 335 342 345 346 318 287 312 302 268 270 287 303 306
246 270 272 283 297 308 325 340 338 339 333 338 340 352 15 9 24 35 32 353 342 327 322 307 315 313 301 314 331 340 347 327 338 359 3 9 30 14 1 15 20 26 29 3
293 252 264 284 305 316 330 345 348 345 350 351 1 14 18 49 50 30 14 314 306 322 307 312 328 320 301 284 307 327 359 24 11 12 27 10 30 37 26 2 348 340 329 348
258 238 272 283 286 312 333 1 1 3 4 8 21 43 58 65 66 50 25 257 275 8 318 291 331 274 274 287 323 340 330 347 12 358 359 324 342 330 10 356 10 351 347 341